Location: Elstree
(51.6403°N, 0.2969°W)
Time: 05:12:20
(UTC+00:00)

deb Delta 107 - Pass Details

Date: 04 February 2022
Orbit: 707 x 861 km, 97.7° (Epoch: 23 May)

Event Time Altitude Azimuth Distance (km) Brightness Sun altitude
Rises 17:48:56 0° 172° (S) 3,158 ? -8.6°
Reaches altitude 10° 17:51:15 10° 175° (S) 2,222 ? -8.9°
Maximum altitude 17:56:05 67° 258° (WSW) 779 ? -9.6°
Drops below altitude 10° 18:00:55 10° 342° (NNW) 2,218 ? -10.4°
Sets 18:03:08 0° 345° (NNW) 3,117 ? -10.7°
